• In Portugal
  • List of Countries
  • For 7 days
  • Water Temperature
  • Satellite Maps
  • Weather Map
  • Weather Widgets
  • user-avatar
    Login

    Hourly Weather Bodrum

    Today, 23 October, Monday

    Time Temperature Precipitation Wind Pressure Humidity
    00:00 +19°C° 0 mm 1 mps 754 mmHg 52%
    01:00 +18°C° 0 mm 1 mps 754 mmHg 53%
    02:00 +18°C° 0 mm 1 mps 754 mmHg 51%
    03:00 +18°C° 0 mm 1 mps 754 mmHg 53%
    04:00 +18°C° 0 mm 1 mps 754 mmHg 54%
    05:00 +16°C° 0 mm 1 mps 753 mmHg 56%
    06:00 +18°C° 0 mm 1 mps 753 mmHg 55%
    07:00 +19°C° 0 mm 2 mps 753 mmHg 54%
    08:00 +20°C° 0 mm 2 mps 753 mmHg 53%
    09:00 +23°C° 0 mm 2 mps 753 mmHg 47%
    10:00 +25°C° 0 mm 3 mps 753 mmHg 42%
    11:00 +27°C° 0 mm 3 mps 753 mmHg 36%
    12:00 +27°C° 0 mm 4 mps 753 mmHg 35%
    13:00 +27°C° 0 mm 4 mps 752 mmHg 35%
    14:00 +27°C° 0 mm 4 mps 752 mmHg 35%
    15:00 +26°C° 0 mm 4 mps 752 mmHg 42%
    16:00 +23°C° 0 mm 4 mps 751 mmHg 49%
    17:00 +22°C° 0 mm 4 mps 751 mmHg 56%
    18:00 +21°C° 0 mm 5 mps 751 mmHg 64%
    19:00 +20°C° 0 mm 5 mps 751 mmHg 72%
    20:00 +17°C° 0 mm 5 mps 751 mmHg 79%
    21:00 +17°C° 0.1 mm 6 mps 751 mmHg 81%
    22:00 +17°C° 0.1 mm 6 mps 751 mmHg 83%
    23:00 +17°C° 0.1 mm 7 mps 751 mmHg 85%

    Tomorrow, 24 October, Tuesday

    Time Temperature Precipitation Wind Pressure Humidity
    00:00 +17°C° 0.2 mm 7 mps 750 mmHg 83%
    01:00 +17°C° 0.2 mm 7 mps 750 mmHg 82%
    02:00 +18°C° 0.2 mm 7 mps 750 mmHg 80%
    03:00 +18°C° 0.9 mm 8 mps 749 mmHg 80%
    04:00 +18°C° 0.9 mm 8 mps 749 mmHg 81%
    05:00 +18°C° 0.9 mm 8 mps 748 mmHg 81%
    06:00 +18°C° 2.2 mm 8 mps 748 mmHg 83%
    07:00 +18°C° 2.2 mm 8 mps 748 mmHg 85%
    08:00 +18°C° 2.2 mm 7 mps 748 mmHg 87%
    09:00 +18°C° 2.3 mm 7 mps 748 mmHg 87%
    10:00 +18°C° 2.3 mm 7 mps 749 mmHg 86%
    11:00 +19°C° 2.3 mm 6 mps 749 mmHg 86%
    12:00 +19°C° 1.6 mm 6 mps 749 mmHg 83%
    13:00 +20°C° 1.6 mm 5 mps 749 mmHg 80%
    14:00 +20°C° 1.6 mm 4 mps 748 mmHg 78%
    15:00 +20°C° 1.1 mm 4 mps 749 mmHg 79%
    16:00 +19°C° 1.1 mm 4 mps 749 mmHg 80%
    17:00 +19°C° 1.1 mm 4 mps 749 mmHg 81%
    18:00 +18°C° 0.7 mm 3 mps 749 mmHg 82%
    19:00 +18°C° 0.7 mm 3 mps 750 mmHg 83%
    20:00 +17°C° 0.7 mm 3 mps 750 mmHg 85%
    21:00 +17°C° 0.5 mm 2 mps 751 mmHg 86%
    22:00 +17°C° 0.5 mm 2 mps 751 mmHg 87%
    23:00 +16°C° 0.5 mm 2 mps 751 mmHg 87%

    Day after tomorrow, 25 October, Wednesday

    Time Temperature Precipitation Wind Pressure Humidity
    00:00 +16°C° 0.6 mm 2 mps 752 mmHg 88%
    01:00 +16°C° 0.6 mm 2 mps 752 mmHg 89%
    02:00 +15°C° 0.6 mm 2 mps 752 mmHg 90%
    03:00 +14°C° 0.7 mm 3 mps 752 mmHg 90%
    04:00 +14°C° 0.7 mm 3 mps 752 mmHg 90%
    05:00 +14°C° 0.7 mm 4 mps 752 mmHg 90%
    06:00 +15°C° 0.5 mm 4 mps 753 mmHg 88%
    07:00 +15°C° 0.5 mm 4 mps 753 mmHg 85%
    08:00 +17°C° 0.5 mm 4 mps 754 mmHg 83%
    09:00 +19°C° 0.3 mm 4 mps 754 mmHg 73%
    10:00 +20°C° 0.3 mm 5 mps 754 mmHg 64%
    11:00 +22°C° 0.3 mm 5 mps 755 mmHg 55%
    12:00 +22°C° 0.1 mm 5 mps 755 mmHg 53%
    13:00 +22°C° 0.1 mm 5 mps 755 mmHg 52%
    14:00 +22°C° 0.1 mm 5 mps 755 mmHg 50%
    15:00 +21°C° 0.2 mm 4 mps 755 mmHg 56%
    16:00 +20°C° 0.2 mm 4 mps 755 mmHg 61%
    17:00 +19°C° 0.2 mm 4 mps 756 mmHg 66%
    18:00 +18°C° 0.2 mm 4 mps 756 mmHg 69%
    19:00 +18°C° 0.2 mm 3 mps 757 mmHg 73%
    20:00 +17°C° 0.2 mm 3 mps 757 mmHg 76%
    21:00 +17°C° 0.3 mm 3 mps 758 mmHg 77%
    22:00 +16°C° 0.3 mm 3 mps 758 mmHg 78%
    23:00 +16°C° 0.3 mm 3 mps 758 mmHg 79%

    26 October, Thursday

    Time Temperature Precipitation Wind Pressure Humidity
    00:00 +16°C° 0.3 mm 3 mps 758 mmHg 78%
    01:00 +16°C° 0.3 mm 3 mps 759 mmHg 78%
    02:00 +14°C° 0.3 mm 3 mps 759 mmHg 78%
    03:00 +14°C° 0.4 mm 3 mps 759 mmHg 78%
    04:00 +14°C° 0.4 mm 3 mps 759 mmHg 78%
    05:00 +14°C° 0.4 mm 3 mps 759 mmHg 78%
    06:00 +14°C° 0 mm 3 mps 759 mmHg 76%
    07:00 +16°C° 0 mm 3 mps 760 mmHg 74%
    08:00 +16°C° 0 mm 3 mps 760 mmHg 72%
    09:00 +18°C° 0 mm 3 mps 760 mmHg 64%
    10:00 +20°C° 0 mm 2 mps 761 mmHg 56%
    11:00 +23°C° 0 mm 2 mps 761 mmHg 49%
    12:00 +24°C° 0 mm 2 mps 760 mmHg 46%
    13:00 +25°C° 0 mm 2 mps 760 mmHg 43%
    14:00 +25°C° 0 mm 2 mps 760 mmHg 40%
    15:00 +24°C° 0 mm 3 mps 760 mmHg 44%
    16:00 +22°C° 0 mm 3 mps 760 mmHg 48%
    17:00 +21°C° 0 mm 3 mps 760 mmHg 52%
    18:00 +20°C° 0 mm 3 mps 760 mmHg 55%
    19:00 +19°C° 0 mm 3 mps 760 mmHg 59%
    20:00 +18°C° 0 mm 3 mps 760 mmHg 62%
    21:00 +18°C° 0 mm 4 mps 760 mmHg 63%
    22:00 +17°C° 0 mm 4 mps 760 mmHg 65%
    23:00 +17°C° 0 mm 4 mps 760 mmHg 66%

    27 October, Friday

    Time Temperature Precipitation Wind Pressure Humidity
    00:00 +15°C° 0 mm 4 mps 760 mmHg 67%
    01:00 +15°C° 0 mm 4 mps 760 mmHg 69%
    02:00 +15°C° 0 mm 4 mps 759 mmHg 70%
    03:00 +14°C° 0 mm 3 mps 759 mmHg 71%
    04:00 +14°C° 0 mm 3 mps 759 mmHg 72%
    05:00 +14°C° 0 mm 3 mps 759 mmHg 73%
    06:00 +14°C° 0 mm 3 mps 759 mmHg 71%
    07:00 +16°C° 0 mm 3 mps 759 mmHg 69%
    08:00 +17°C° 0 mm 3 mps 759 mmHg 67%
    09:00 +19°C° 0 mm 2 mps 759 mmHg 59%
    10:00 +21°C° 0 mm 2 mps 759 mmHg 52%
    11:00 +24°C° 0 mm 2 mps 759 mmHg 44%
    12:00 +25°C° 0 mm 2 mps 758 mmHg 43%
    13:00 +25°C° 0 mm 2 mps 757 mmHg 41%
    14:00 +26°C° 0 mm 2 mps 757 mmHg 39%
    15:00 +24°C° 0 mm 2 mps 757 mmHg 44%
    16:00 +23°C° 0 mm 2 mps 756 mmHg 49%
    17:00 +21°C° 0 mm 2 mps 756 mmHg 54%
    18:00 +20°C° 0 mm 2 mps 756 mmHg 59%
    19:00 +19°C° 0 mm 2 mps 756 mmHg 63%
    20:00 +17°C° 0 mm 2 mps 756 mmHg 68%
    21:00 +18°C° 0 mm 1 mps 756 mmHg 69%
    22:00 +18°C° 0 mm 1 mps 756 mmHg 70%
    23:00 +16°C° 0 mm 1 mps 755 mmHg 72%

    28 October, Saturday

    Time Temperature Precipitation Wind Pressure Humidity
    00:00 +16°C° 0 mm 1 mps 755 mmHg 72%
    01:00 +16°C° 0 mm 1 mps 755 mmHg 73%
    02:00 +16°C° 0 mm 1 mps 754 mmHg 74%
    03:00 +15°C° 0 mm 1 mps 754 mmHg 74%
    04:00 +15°C° 0 mm 1 mps 754 mmHg 75%
    05:00 +15°C° 0 mm 1 mps 754 mmHg 76%
    06:00 +16°C° 0 mm 1 mps 754 mmHg 73%
    07:00 +18°C° 0 mm 1 mps 754 mmHg 70%
    08:00 +17°C° 0 mm 2 mps 754 mmHg 67%
    09:00 +19°C° 0 mm 2 mps 754 mmHg 62%
    10:00 +21°C° 0 mm 2 mps 754 mmHg 56%
    11:00 +23°C° 0 mm 2 mps 754 mmHg 51%
    12:00 +24°C° 0 mm 2 mps 754 mmHg 49%
    13:00 +24°C° 0 mm 2 mps 753 mmHg 46%
    14:00 +24°C° 0 mm 2 mps 753 mmHg 44%
    15:00 +23°C° 0 mm 2 mps 753 mmHg 50%
    16:00 +21°C° 0 mm 2 mps 753 mmHg 55%
    17:00 +19°C° 0 mm 2 mps 753 mmHg 61%
    18:00 +18°C° 0 mm 2 mps 753 mmHg 65%
    19:00 +17°C° 0 mm 3 mps 753 mmHg 70%
    20:00 +16°C° 0 mm 3 mps 753 mmHg 75%
    21:00 +16°C° 0.1 mm 3 mps 753 mmHg 74%
    22:00 +17°C° 0.1 mm 4 mps 753 mmHg 74%
    23:00 +17°C° 0.1 mm 4 mps 753 mmHg 73%

    29 October, Sunday

    Time Temperature Precipitation Wind Pressure Humidity
    00:00 +17°C° 0.3 mm 4 mps 753 mmHg 73%
    01:00 +17°C° 0.3 mm 4 mps 752 mmHg 74%
    02:00 +17°C° 0.3 mm 4 mps 752 mmHg 74%
    03:00 +17°C° 0.4 mm 4 mps 752 mmHg 76%
    04:00 +17°C° 0.4 mm 3 mps 752 mmHg 79%
    05:00 +17°C° 0.4 mm 3 mps 751 mmHg 81%
    06:00 +17°C° 0.8 mm 3 mps 752 mmHg 82%
    07:00 +17°C° 0.8 mm 3 mps 752 mmHg 82%
    08:00 +18°C° 0.8 mm 3 mps 752 mmHg 82%
    09:00 +18°C° 0.9 mm 3 mps 752 mmHg 78%
    10:00 +19°C° 0.9 mm 3 mps 752 mmHg 75%
    11:00 +20°C° 0.9 mm 2 mps 752 mmHg 71%
    12:00 +21°C° 0.6 mm 3 mps 751 mmHg 69%
    13:00 +21°C° 0.6 mm 3 mps 751 mmHg 67%
    14:00 +21°C° 0.6 mm 3 mps 751 mmHg 65%
    15:00 +20°C° 0.1 mm 4 mps 751 mmHg 68%
    16:00 +20°C° 0.1 mm 4 mps 751 mmHg 71%
    17:00 +19°C° 0.1 mm 4 mps 751 mmHg 74%
    18:00 +17°C° 0 mm 5 mps 752 mmHg 75%
    19:00 +16°C° 0 mm 6 mps 753 mmHg 77%
    20:00 +15°C° 0 mm 6 mps 753 mmHg 78%
    21:00 +14°C° 0 mm 6 mps 754 mmHg 77%
    22:00 +14°C° 0 mm 6 mps 754 mmHg 75%
    23:00 +13°C° 0 mm 6 mps 754 mmHg 73%
    Show more